Time,TemperatureF,DewpointF,PressureIn,WindDirection,WindDirectionDegrees,WindSpeedMPH,WindSpeedGustMPH,Humidity,HourlyPrecipIn,Conditions,Clouds,dailyrainin,SoftwareType,DateUTC
2013-09-06 00:03:00,84.0,56.5,28.58,East,90,6.0,8.0,39,0.00,,,0.00,meteohub,2013-09-06 05:03:00,
2013-09-06 00:08:00,83.5,55.9,28.58,East,90,4.0,8.0,39,0.00,,,0.00,meteohub,2013-09-06 05:08:00,
2013-09-06 00:13:00,83.3,56.5,28.58,East,90,1.0,8.0,40,0.00,,,0.00,meteohub,2013-09-06 05:13:00,
2013-09-06 00:18:00,83.3,56.5,28.58,SE,135,1.0,8.0,40,0.00,,,0.00,meteohub,2013-09-06 05:18:00,
2013-09-06 00:23:00,82.9,56.8,28.58,NE,45,1.0,8.0,41,0.00,,,0.00,meteohub,2013-09-06 05:23:00,
2013-09-06 00:28:00,82.8,56.7,28.58,East,90,1.0,10.0,41,0.00,,,0.00,meteohub,2013-09-06 05:28:00,
2013-09-06 00:33:00,82.6,57.2,28.58,SE,135,1.0,10.0,42,0.00,,,0.00,meteohub,2013-09-06 05:33:00,
2013-09-06 00:38:00,82.4,57.0,28.58,NE,45,6.0,10.0,42,0.00,,,0.00,meteohub,2013-09-06 05:38:00,
2013-09-06 00:43:00,82.4,57.7,28.58,East,90,9.0,9.0,43,0.00,,,0.00,meteohub,2013-09-06 05:43:00,
2013-09-06 00:48:00,82.2,57.6,28.58,East,90,1.0,9.0,43,0.00,,,0.00,meteohub,2013-09-06 05:48:00,
2013-09-06 00:53:00,82.0,57.4,28.58,East,90,1.0,9.0,43,0.00,,,0.00,meteohub,2013-09-06 05:53:00,
2013-09-06 00:58:00,81.5,57.6,28.58,NW,315,1.0,9.0,44,0.00,,,0.00,meteohub,2013-09-06 05:58:00,
2013-09-06 01:03:00,81.5,57.6,28.58,East,90,1.0,5.0,44,0.00,,,0.00,meteohub,2013-09-06 06:03:00,
2013-09-06 01:08:00,81.3,57.9,28.58,NE,45,1.0,4.0,45,0.00,,,0.00,meteohub,2013-09-06 06:08:00,
2013-09-06 01:13:00,81.0,57.6,28.58,SE,135,1.0,4.0,45,0.00,,,0.00,meteohub,2013-09-06 06:13:00,
2013-09-06 01:18:00,81.0,57.6,28.58,SE,135,1.0,4.0,45,0.00,,,0.00,meteohub,2013-09-06 06:18:00,
2013-09-06 01:23:00,80.8,58.1,28.58,East,90,1.0,2.0,46,0.00,,,0.00,meteohub,2013-09-06 06:23:00,
2013-09-06 01:28:00,80.6,57.9,28.58,East,90,1.0,2.0,46,0.00,,,0.00,meteohub,2013-09-06 06:28:00,
2013-09-06 01:33:00,80.2,58.1,28.58,NE,45,1.0,1.0,47,0.00,,,0.00,meteohub,2013-09-06 06:33:00,
2013-09-06 01:38:00,80.2,58.1,28.58,East,90,2.0,2.0,47,0.00,,,0.00,meteohub,2013-09-06 06:38:00,
2013-09-06 01:43:00,80.4,58.3,28.58,East,90,8.0,8.0,47,0.00,,,0.00,meteohub,2013-09-06 06:43:00,
2013-09-06 01:48:00,80.8,58.6,28.59,NE,45,4.0,8.0,47,0.00,,,0.00,meteohub,2013-09-06 06:48:00,
2013-09-06 01:53:00,80.8,58.6,28.58,East,90,1.0,8.0,47,0.00,,,0.00,meteohub,2013-09-06 06:53:00,
2013-09-06 01:58:00,80.2,58.1,28.58,SE,135,2.0,8.0,47,0.00,,,0.00,meteohub,2013-09-06 06:58:00,
2013-09-06 02:03:00,80.1,58.6,28.58,East,90,1.0,7.0,48,0.00,,,0.00,meteohub,2013-09-06 07:03:00,
2013-09-06 02:08:00,80.1,58.6,28.58,East,90,1.0,4.0,48,0.00,,,0.00,meteohub,2013-09-06 07:08:00,
2013-09-06 02:13:00,79.7,58.8,28.58,East,90,1.0,4.0,49,0.00,,,0.00,meteohub,2013-09-06 07:13:00,
2013-09-06 02:18:00,79.7,58.8,28.58,NE,45,2.0,4.0,49,0.00,,,0.00,meteohub,2013-09-06 07:18:00,
2013-09-06 02:23:00,79.9,59.0,28.58,SE,135,1.0,5.0,49,0.00,,,0.00,meteohub,2013-09-06 07:23:00,
2013-09-06 02:28:00,79.7,58.8,28.58,SE,135,1.0,5.0,49,0.00,,,0.00,meteohub,2013-09-06 07:28:00,
2013-09-06 02:33:00,79.5,59.2,28.58,East,90,2.0,5.0,50,0.00,,,0.00,meteohub,2013-09-06 07:33:00,
2013-09-06 02:38:00,79.3,59.0,28.58,East,90,4.0,5.0,50,0.00,,,0.00,meteohub,2013-09-06 07:38:00,
2013-09-06 02:43:00,79.3,59.0,28.58,NE,45,1.0,5.0,50,0.00,,,0.00,meteohub,2013-09-06 07:43:00,
2013-09-06 02:48:00,79.0,58.8,28.58,SE,135,5.0,5.0,50,0.00,,,0.00,meteohub,2013-09-06 07:48:00,
2013-09-06 02:53:00,79.2,59.5,28.58,East,90,2.0,5.0,51,0.00,,,0.00,meteohub,2013-09-06 07:53:00,
2013-09-06 02:58:00,78.8,59.2,28.57,East,90,1.0,5.0,51,0.00,,,0.00,meteohub,2013-09-06 07:58:00,
2013-09-06 03:03:00,78.8,59.2,28.57,NE,45,2.0,5.0,51,0.00,,,0.00,meteohub,2013-09-06 08:03:00,
2013-09-06 03:09:00,78.8,59.2,28.58,NE,45,1.0,4.0,51,0.00,,,0.00,meteohub,2013-09-06 08:09:00,
2013-09-06 03:14:00,78.4,58.8,28.58,NE,45,0.0,2.0,51,0.00,,,0.00,meteohub,2013-09-06 08:14:00,
2013-09-06 03:19:00,78.4,59.4,28.57,East,90,1.0,2.0,52,0.00,,,0.00,meteohub,2013-09-06 08:19:00,
2013-09-06 03:24:00,78.3,59.2,28.57,SE,135,1.0,1.0,52,0.00,,,0.00,meteohub,2013-09-06 08:24:00,
2013-09-06 03:29:00,78.3,59.2,28.58,North,0,2.0,2.0,52,0.00,,,0.00,meteohub,2013-09-06 08:29:00,
2013-09-06 03:34:00,78.4,59.4,28.57,East,90,1.0,2.0,52,0.00,,,0.00,meteohub,2013-09-06 08:34:00,
2013-09-06 03:39:00,78.3,59.2,28.57,East,90,1.0,2.0,52,0.00,,,0.00,meteohub,2013-09-06 08:39:00,
2013-09-06 03:44:00,78.1,59.0,28.56,East,90,1.0,4.0,52,0.00,,,0.00,meteohub,2013-09-06 08:44:00,
2013-09-06 03:49:00,77.9,59.4,28.57,NNE,23,1.0,4.0,53,0.00,,,0.00,meteohub,2013-09-06 08:49:00,
2013-09-06 03:54:00,77.7,59.2,28.56,East,90,1.0,4.0,53,0.00,,,0.00,meteohub,2013-09-06 08:54:00,
2013-09-06 03:59:00,77.7,59.2,28.56,SE,135,1.0,1.0,53,0.00,,,0.00,meteohub,2013-09-06 08:59:00,
2013-09-06 04:04:00,77.9,59.4,28.57,East,90,1.0,1.0,53,0.00,,,0.00,meteohub,2013-09-06 09:04:00,
2013-09-06 04:09:00,77.5,59.0,28.56,East,90,1.0,1.0,53,0.00,,,0.00,meteohub,2013-09-06 09:09:00,
2013-09-06 04:14:00,77.4,58.8,28.56,NE,45,1.0,1.0,53,0.00,,,0.00,meteohub,2013-09-06 09:14:00,
2013-09-06 04:19:00,77.4,59.4,28.56,East,90,1.0,1.0,54,0.00,,,0.00,meteohub,2013-09-06 09:19:00,
2013-09-06 04:24:00,77.4,59.4,28.56,East,90,1.0,1.0,54,0.00,,,0.00,meteohub,2013-09-06 09:24:00,
2013-09-06 04:29:00,77.0,59.0,28.56,NE,45,0.0,2.0,54,0.00,,,0.00,meteohub,2013-09-06 09:29:00,
2013-09-06 04:34:00,77.2,59.2,28.56,East,90,1.0,2.0,54,0.00,,,0.00,meteohub,2013-09-06 09:34:00,
2013-09-06 04:39:00,77.4,59.4,28.56,NE,45,1.0,2.0,54,0.00,,,0.00,meteohub,2013-09-06 09:39:00,
2013-09-06 04:44:00,76.8,59.4,28.56,SE,135,1.0,1.0,55,0.00,,,0.00,meteohub,2013-09-06 09:44:00,
2013-09-06 04:49:00,76.8,59.4,28.56,East,90,1.0,2.0,55,0.00,,,0.00,meteohub,2013-09-06 09:49:00,
2013-09-06 04:54:00,76.3,59.4,28.56,NE,45,1.0,2.0,56,0.00,,,0.00,meteohub,2013-09-06 09:54:00,
2013-09-06 04:59:00,76.1,59.2,28.57,South,180,1.0,2.0,56,0.00,,,0.00,meteohub,2013-09-06 09:59:00,
2013-09-06 05:04:00,75.9,59.5,28.57,East,90,2.0,2.0,57,0.00,,,0.00,meteohub,2013-09-06 10:04:00,
2013-09-06 05:09:00,75.7,59.4,28.57,East,90,0.0,2.0,57,0.00,,,0.00,meteohub,2013-09-06 10:09:00,
2013-09-06 05:14:00,75.6,59.2,28.57,NE,45,1.0,2.0,57,0.00,,,0.00,meteohub,2013-09-06 10:14:00,
2013-09-06 05:19:00,75.4,59.5,28.57,NE,45,1.0,2.0,58,0.00,,,0.00,meteohub,2013-09-06 10:19:00,
2013-09-06 05:24:00,75.4,59.5,28.57,East,90,2.0,2.0,58,0.00,,,0.00,meteohub,2013-09-06 10:24:00,
2013-09-06 05:29:00,75.0,59.2,28.57,East,90,1.0,4.0,58,0.00,,,0.00,meteohub,2013-09-06 10:29:00,
2013-09-06 05:34:00,74.8,59.5,28.57,East,90,1.0,4.0,59,0.00,,,0.00,meteohub,2013-09-06 10:34:00,
2013-09-06 05:39:00,75.0,59.7,28.58,East,90,1.0,4.0,59,0.00,,,0.00,meteohub,2013-09-06 10:39:00,
2013-09-06 05:44:00,74.8,59.5,28.57,NE,45,1.0,4.0,59,0.00,,,0.00,meteohub,2013-09-06 10:44:00,
2013-09-06 05:49:00,74.7,59.4,28.57,East,90,0.0,2.0,59,0.00,,,0.00,meteohub,2013-09-06 10:49:00,
2013-09-06 05:54:00,74.7,59.9,28.58,NE,45,1.0,2.0,60,0.00,,,0.00,meteohub,2013-09-06 10:54:00,
2013-09-06 05:59:00,74.7,59.9,28.58,East,90,0.0,1.0,60,0.00,,,0.00,meteohub,2013-09-06 10:59:00,
2013-09-06 06:04:00,74.5,59.7,28.58,East,90,0.0,1.0,60,0.00,,,0.00,meteohub,2013-09-06 11:04:00,
2013-09-06 06:09:00,74.1,59.4,28.57,NE,45,1.0,1.0,60,0.00,,,0.00,meteohub,2013-09-06 11:09:00,
2013-09-06 06:14:00,74.3,59.9,28.58,East,90,1.0,1.0,61,0.00,,,0.00,meteohub,2013-09-06 11:14:00,
2013-09-06 06:19:00,74.3,59.9,28.58,East,90,0.0,1.0,61,0.00,,,0.00,meteohub,2013-09-06 11:19:00,
2013-09-06 06:24:00,74.1,59.7,28.58,East,90,1.0,1.0,61,0.00,,,0.00,meteohub,2013-09-06 11:24:00,
2013-09-06 06:29:00,74.3,59.9,28.58,East,90,1.0,1.0,61,0.00,,,0.00,meteohub,2013-09-06 11:29:00,
2013-09-06 06:34:00,73.9,59.7,28.58,East,90,1.0,1.0,61,0.00,,,0.00,meteohub,2013-09-06 11:34:00,
2013-09-06 06:39:00,74.1,59.7,28.58,NE,45,1.0,1.0,61,0.00,,,0.00,meteohub,2013-09-06 11:39:00,
2013-09-06 06:44:00,73.9,59.7,28.58,East,90,0.0,1.0,61,0.00,,,0.00,meteohub,2013-09-06 11:44:00,
2013-09-06 06:49:00,73.8,59.9,28.58,East,90,0.0,1.0,62,0.00,,,0.00,meteohub,2013-09-06 11:49:00,
2013-09-06 06:54:00,73.9,60.1,28.58,NE,45,1.0,1.0,62,0.00,,,0.00,meteohub,2013-09-06 11:54:00,
2013-09-06 06:59:00,73.8,59.9,28.59,NE,45,1.0,1.0,62,0.00,,,0.00,meteohub,2013-09-06 11:59:00,
2013-09-06 07:04:00,73.4,59.5,28.59,East,90,0.0,1.0,62,0.00,,,0.00,meteohub,2013-09-06 12:04:00,
2013-09-06 07:09:00,73.6,60.3,28.58,East,90,1.0,1.0,63,0.00,,,0.00,meteohub,2013-09-06 12:09:00,
2013-09-06 07:14:00,73.8,60.4,28.59,ESE,113,1.0,1.0,63,0.00,,,0.00,meteohub,2013-09-06 12:14:00,
2013-09-06 07:19:00,73.6,60.3,28.59,East,90,1.0,1.0,63,0.00,,,0.00,meteohub,2013-09-06 12:19:00,
2013-09-06 07:24:00,73.6,60.3,28.60,East,90,1.0,1.0,63,0.00,,,0.00,meteohub,2013-09-06 12:24:00,
2013-09-06 07:29:00,73.8,60.4,28.60,East,90,1.0,1.0,63,0.00,,,0.00,meteohub,2013-09-06 12:29:00,
2013-09-06 07:34:00,73.8,60.4,28.60,NE,45,1.0,1.0,63,0.00,,,0.00,meteohub,2013-09-06 12:34:00,
2013-09-06 07:39:00,73.8,60.4,28.59,East,90,0.0,1.0,63,0.00,,,0.00,meteohub,2013-09-06 12:39:00,
2013-09-06 07:44:00,73.8,60.4,28.60,East,90,0.0,1.0,63,0.00,,,0.00,meteohub,2013-09-06 12:44:00,
2013-09-06 07:49:00,73.8,60.4,28.59,East,90,0.0,1.0,63,0.00,,,0.00,meteohub,2013-09-06 12:49:00,
2013-09-06 07:54:00,73.8,60.4,28.60,East,90,0.0,1.0,63,0.00,,,0.00,meteohub,2013-09-06 12:54:00,
2013-09-06 07:59:00,74.3,60.8,28.60,East,90,1.0,1.0,63,0.00,,,0.00,meteohub,2013-09-06 12:59:00,
2013-09-06 08:04:00,74.3,60.8,28.60,East,90,1.0,1.0,63,0.00,,,0.00,meteohub,2013-09-06 13:04:00,
2013-09-06 08:09:00,74.7,61.2,28.60,East,90,0.0,1.0,63,0.00,,,0.00,meteohub,2013-09-06 13:09:00,
2013-09-06 08:14:00,74.8,61.0,28.60,East,90,1.0,1.0,62,0.00,,,0.00,meteohub,2013-09-06 13:14:00,
2013-09-06 08:19:00,75.4,61.5,28.60,East,90,0.0,1.0,62,0.00,,,0.00,meteohub,2013-09-06 13:19:00,
2013-09-06 08:24:00,75.6,61.2,28.61,East,90,1.0,1.0,61,0.00,,,0.00,meteohub,2013-09-06 13:24:00,
2013-09-06 08:29:00,75.9,61.5,28.61,NE,45,1.0,1.0,61,0.00,,,0.00,meteohub,2013-09-06 13:29:00,
2013-09-06 08:34:00,76.3,61.3,28.61,SE,135,1.0,1.0,60,0.00,,,0.00,meteohub,2013-09-06 13:34:00,
2013-09-06 08:39:00,77.2,61.7,28.60,North,0,2.0,2.0,59,0.00,,,0.00,meteohub,2013-09-06 13:39:00,
2013-09-06 08:44:00,77.5,61.5,28.60,East,90,1.0,1.0,58,0.00,,,0.00,meteohub,2013-09-06 13:44:00,
2013-09-06 08:49:00,78.6,61.5,28.60,SE,135,3.0,3.0,56,0.00,,,0.00,meteohub,2013-09-06 13:49:00,
2013-09-06 08:54:00,79.0,61.5,28.60,East,90,1.0,2.0,55,0.00,,,0.00,meteohub,2013-09-06 13:54:00,
2013-09-06 08:59:00,79.9,61.7,28.61,East,90,1.0,4.0,54,0.00,,,0.00,meteohub,2013-09-06 13:59:00,
2013-09-06 09:04:00,80.4,61.7,28.61,East,90,1.0,4.0,53,0.00,,,0.00,meteohub,2013-09-06 14:04:00,
2013-09-06 09:09:00,81.1,61.9,28.61,East,90,1.0,1.0,52,0.00,,,0.00,meteohub,2013-09-06 14:09:00,
2013-09-06 09:14:00,81.9,61.9,28.60,East,90,1.0,1.0,51,0.00,,,0.00,meteohub,2013-09-06 14:14:00,
2013-09-06 09:19:00,82.4,61.9,28.60,East,90,1.0,2.0,50,0.00,,,0.00,meteohub,2013-09-06 14:19:00,
2013-09-06 09:24:00,82.9,62.4,28.60,SE,135,1.0,2.0,50,0.00,,,0.00,meteohub,2013-09-06 14:24:00,
2013-09-06 09:29:00,83.7,62.4,28.61,SE,135,1.0,2.0,49,0.00,,,0.00,meteohub,2013-09-06 14:29:00,
2013-09-06 09:34:00,83.8,61.5,28.61,East,90,2.0,2.0,47,0.00,,,0.00,meteohub,2013-09-06 14:34:00,
2013-09-06 09:39:00,84.9,62.4,28.61,East,90,3.0,3.0,47,0.00,,,0.00,meteohub,2013-09-06 14:39:00,
2013-09-06 09:44:00,85.5,62.2,28.61,ESE,113,1.0,4.0,46,0.00,,,0.00,meteohub,2013-09-06 14:44:00,
2013-09-06 09:49:00,86.0,62.8,28.60,East,90,1.0,4.0,46,0.00,,,0.00,meteohub,2013-09-06 14:49:00,
2013-09-06 09:54:00,86.7,62.8,28.60,East,90,1.0,4.0,45,0.00,,,0.00,meteohub,2013-09-06 14:54:00,
2013-09-06 09:59:00,87.1,62.6,28.61,SE,135,1.0,2.0,44,0.00,,,0.00,meteohub,2013-09-06 14:59:00,
2013-09-06 10:04:00,87.8,62.6,28.60,South,180,1.0,2.0,43,0.00,,,0.00,meteohub,2013-09-06 15:04:00,
2013-09-06 10:09:00,88.9,63.5,28.60,South,180,1.0,5.0,43,0.00,,,0.00,meteohub,2013-09-06 15:09:00,
2013-09-06 10:14:00,89.4,62.6,28.60,SE,135,1.0,5.0,41,0.00,,,0.00,meteohub,2013-09-06 15:14:00,
2013-09-06 10:19:00,89.2,62.4,28.61,South,180,1.0,5.0,41,0.00,,,0.00,meteohub,2013-09-06 15:19:00,
2013-09-06 10:24:00,89.8,63.0,28.61,SSE,158,1.0,4.0,41,0.00,,,0.00,meteohub,2013-09-06 15:24:00,
2013-09-06 10:29:00,90.0,63.1,28.60,East,90,5.0,5.0,41,0.00,,,0.00,meteohub,2013-09-06 15:29:00,
2013-09-06 10:34:00,90.0,62.4,28.61,SSW,203,7.0,7.0,40,0.00,,,0.00,meteohub,2013-09-06 15:34:00,
2013-09-06 10:40:00,90.1,62.6,28.61,South,180,2.0,6.0,40,0.00,,,0.00,meteohub,2013-09-06 15:40:00,
2013-09-06 10:45:00,90.3,62.8,28.60,SE,135,3.0,8.0,40,0.00,,,0.00,meteohub,2013-09-06 15:45:00,
2013-09-06 10:50:00,90.9,62.4,28.61,SW,225,3.0,8.0,39,0.00,,,0.00,meteohub,2013-09-06 15:50:00,
2013-09-06 10:55:00,91.0,62.6,28.60,South,180,3.0,8.0,39,0.00,,,0.00,meteohub,2013-09-06 15:55:00,
2013-09-06 11:00:00,90.9,61.7,28.60,West,270,9.0,11.0,38,0.00,,,0.00,meteohub,2013-09-06 16:00:00,
2013-09-06 11:05:00,91.4,63.0,28.60,South,180,7.0,11.0,39,0.00,,,0.00,meteohub,2013-09-06 16:05:00,
2013-09-06 11:10:00,92.3,62.2,28.60,SW,225,4.0,10.0,37,0.00,,,0.00,meteohub,2013-09-06 16:10:00,
2013-09-06 11:15:00,92.1,62.1,28.60,SW,225,5.0,14.0,37,0.00,,,0.00,meteohub,2013-09-06 16:15:00,
2013-09-06 11:20:00,92.1,62.8,28.60,SW,225,6.0,14.0,38,0.00,,,0.00,meteohub,2013-09-06 16:20:00,
2013-09-06 11:25:00,92.7,63.3,28.60,East,90,2.0,14.0,38,0.00,,,0.00,meteohub,2013-09-06 16:25:00,
2013-09-06 11:30:00,93.7,61.9,28.60,SW,225,10.0,11.0,35,0.00,,,0.00,meteohub,2013-09-06 16:30:00,
2013-09-06 11:35:00,93.9,62.1,28.61,West,270,3.0,10.0,35,0.00,,,0.00,meteohub,2013-09-06 16:35:00,
2013-09-06 11:40:00,93.6,61.0,28.60,SW,225,10.0,10.0,34,0.00,,,0.00,meteohub,2013-09-06 16:40:00,
2013-09-06 11:45:00,94.3,61.5,28.60,West,270,7.0,10.0,34,0.00,,,0.00,meteohub,2013-09-06 16:45:00,
2013-09-06 11:50:00,93.9,61.3,28.59,North,0,6.0,10.0,34,0.00,,,0.00,meteohub,2013-09-06 16:50:00,
2013-09-06 11:55:00,94.5,61.0,28.59,SSW,203,8.0,13.0,33,0.00,,,0.00,meteohub,2013-09-06 16:55:00,
2013-09-06 12:00:00,95.2,61.5,28.59,West,270,4.0,13.0,33,0.00,,,0.00,meteohub,2013-09-06 17:00:00,
2013-09-06 12:05:00,95.4,59.9,28.59,South,180,8.0,9.0,31,0.00,,,0.00,meteohub,2013-09-06 17:05:00,
2013-09-06 12:10:00,95.5,61.0,28.58,South,180,6.0,9.0,32,0.00,,,0.00,meteohub,2013-09-06 17:10:00,
2013-09-06 12:15:00,96.3,60.6,28.58,SW,225,2.0,8.0,31,0.00,,,0.00,meteohub,2013-09-06 17:15:00,
2013-09-06 12:20:00,95.7,59.4,28.58,SW,225,7.0,11.0,30,0.00,,,0.00,meteohub,2013-09-06 17:20:00,
2013-09-06 12:25:00,95.7,58.5,28.58,SW,225,8.0,11.0,29,0.00,,,0.00,meteohub,2013-09-06 17:25:00,
2013-09-06 12:30:00,96.1,56.7,28.58,SW,225,6.0,11.0,27,0.00,,,0.00,meteohub,2013-09-06 17:30:00,
2013-09-06 12:35:00,97.0,59.4,28.57,NE,45,4.0,8.0,29,0.00,,,0.00,meteohub,2013-09-06 17:35:00,
2013-09-06 12:40:00,97.5,57.9,28.58,West,270,5.0,8.0,27,0.00,,,0.00,meteohub,2013-09-06 17:40:00,
2013-09-06 12:45:00,97.5,57.9,28.58,South,180,6.0,8.0,27,0.00,,,0.00,meteohub,2013-09-06 17:45:00,
2013-09-06 12:50:00,97.5,59.0,28.57,West,270,4.0,8.0,28,0.00,,,0.00,meteohub,2013-09-06 17:50:00,
2013-09-06 12:55:00,98.1,58.5,28.57,North,0,4.0,8.0,27,0.00,,,0.00,meteohub,2013-09-06 17:55:00,
2013-09-06 13:00:00,98.4,58.6,28.56,West,270,4.0,6.0,27,0.00,,,0.00,meteohub,2013-09-06 18:00:00,
2013-09-06 13:05:00,98.4,57.6,28.56,SW,225,5.0,5.0,26,0.00,,,0.00,meteohub,2013-09-06 18:05:00,
2013-09-06 13:10:00,97.7,57.0,28.56,South,180,7.0,9.0,26,0.00,,,0.00,meteohub,2013-09-06 18:10:00,
2013-09-06 13:15:00,97.5,56.8,28.56,North,0,4.0,9.0,26,0.00,,,0.00,meteohub,2013-09-06 18:15:00,
2013-09-06 13:20:00,97.7,57.0,28.55,SW,225,15.0,15.0,26,0.00,,,0.00,meteohub,2013-09-06 18:20:00,
2013-09-06 13:25:00,97.7,57.0,28.55,West,270,4.0,15.0,26,0.00,,,0.00,meteohub,2013-09-06 18:25:00,
2013-09-06 13:30:00,97.5,55.8,28.55,West,270,5.0,15.0,25,0.00,,,0.00,meteohub,2013-09-06 18:30:00,
2013-09-06 13:35:00,98.6,56.7,28.54,East,90,1.0,15.0,25,0.00,,,0.00,meteohub,2013-09-06 18:35:00,
2013-09-06 13:40:00,99.0,54.7,28.54,West,270,11.0,11.0,23,0.00,,,0.00,meteohub,2013-09-06 18:40:00,
2013-09-06 13:46:00,98.4,56.5,28.54,SE,135,4.0,11.0,25,0.00,,,0.00,meteohub,2013-09-06 18:46:00,
2013-09-06 13:51:00,99.5,52.7,28.55,South,180,5.0,11.0,21,0.00,,,0.00,meteohub,2013-09-06 18:51:00,
2013-09-06 13:56:00,100.8,55.0,28.54,SE,135,4.0,11.0,22,0.00,,,0.00,meteohub,2013-09-06 18:56:00,
2013-09-06 14:01:00,101.7,53.1,28.54,East,90,2.0,11.0,20,0.00,,,0.00,meteohub,2013-09-06 19:01:00,
2013-09-06 14:06:00,101.1,52.7,28.54,South,180,2.0,8.0,20,0.00,,,0.00,meteohub,2013-09-06 19:06:00,
2013-09-06 14:11:00,99.3,53.8,28.54,SW,225,5.0,8.0,22,0.00,,,0.00,meteohub,2013-09-06 19:11:00,
2013-09-06 14:16:00,98.4,54.3,28.54,South,180,3.0,9.0,23,0.00,,,0.00,meteohub,2013-09-06 19:16:00,
2013-09-06 14:21:00,98.2,56.3,28.53,West,270,1.0,9.0,25,0.00,,,0.00,meteohub,2013-09-06 19:21:00,
2013-09-06 14:26:00,98.8,55.8,28.53,South,180,4.0,8.0,24,0.00,,,0.00,meteohub,2013-09-06 19:26:00,
2013-09-06 14:31:00,99.5,54.0,28.52,SW,225,4.0,7.0,22,0.00,,,0.00,meteohub,2013-09-06 19:31:00,
2013-09-06 14:36:00,100.4,54.7,28.52,East,90,4.0,7.0,22,0.00,,,0.00,meteohub,2013-09-06 19:36:00,
2013-09-06 14:41:00,101.1,54.0,28.52,East,90,2.0,7.0,21,0.00,,,0.00,meteohub,2013-09-06 19:41:00,
2013-09-06 14:46:00,101.8,53.2,28.52,SE,135,7.0,10.0,20,0.00,,,0.00,meteohub,2013-09-06 19:46:00,
2013-09-06 14:51:00,100.4,53.4,28.52,SE,135,1.0,10.0,21,0.00,,,0.00,meteohub,2013-09-06 19:51:00,
2013-09-06 14:56:00,100.0,54.3,28.52,East,90,4.0,10.0,22,0.00,,,0.00,meteohub,2013-09-06 19:56:00,
2013-09-06 15:01:00,99.5,54.0,28.51,East,90,1.0,7.0,22,0.00,,,0.00,meteohub,2013-09-06 20:01:00,
2013-09-06 15:06:00,98.6,55.6,28.51,West,270,0.0,4.0,24,0.00,,,0.00,meteohub,2013-09-06 20:06:00,
2013-09-06 15:11:00,98.6,55.6,28.51,East,90,1.0,4.0,24,0.00,,,0.00,meteohub,2013-09-06 20:11:00,
2013-09-06 15:16:00,98.1,55.0,28.51,East,90,1.0,2.0,24,0.00,,,0.00,meteohub,2013-09-06 20:16:00,
2013-09-06 15:21:00,98.2,55.2,28.51,NE,45,1.0,2.0,24,0.00,,,0.00,meteohub,2013-09-06 20:21:00,
2013-09-06 15:26:00,98.6,54.3,28.50,SE,135,8.0,8.0,23,0.00,,,0.00,meteohub,2013-09-06 20:26:00,
2013-09-06 15:31:00,99.3,53.8,28.50,NE,45,1.0,9.0,22,0.00,,,0.00,meteohub,2013-09-06 20:31:00,
2013-09-06 15:36:00,100.6,53.6,28.50,East,90,1.0,9.0,21,0.00,,,0.00,meteohub,2013-09-06 20:36:00,
2013-09-06 15:41:00,101.8,51.8,28.49,SE,135,7.0,9.0,19,0.00,,,0.00,meteohub,2013-09-06 20:41:00,
2013-09-06 15:46:00,102.6,50.9,28.50,SW,225,5.0,8.0,18,0.00,,,0.00,meteohub,2013-09-06 20:46:00,
2013-09-06 15:51:00,103.3,51.6,28.49,West,270,2.0,8.0,18,0.00,,,0.00,meteohub,2013-09-06 20:51:00,
2013-09-06 15:56:00,104.0,52.2,28.49,East,90,1.0,8.0,18,0.00,,,0.00,meteohub,2013-09-06 20:56:00,
2013-09-06 16:01:00,103.6,50.4,28.48,SE,135,1.0,7.0,17,0.00,,,0.00,meteohub,2013-09-06 21:01:00,
2013-09-06 16:06:00,104.2,50.7,28.48,East,90,5.0,8.0,17,0.00,,,0.00,meteohub,2013-09-06 21:06:00,
2013-09-06 16:11:00,104.2,49.1,28.48,East,90,6.0,10.0,16,0.00,,,0.00,meteohub,2013-09-06 21:11:00,
2013-09-06 16:16:00,104.0,48.9,28.48,East,90,1.0,10.0,16,0.00,,,0.00,meteohub,2013-09-06 21:16:00,
2013-09-06 16:21:00,103.1,51.4,28.48,East,90,4.0,10.0,18,0.00,,,0.00,meteohub,2013-09-06 21:21:00,
2013-09-06 16:26:00,103.3,50.0,28.48,SE,135,8.0,10.0,17,0.00,,,0.00,meteohub,2013-09-06 21:26:00,
2013-09-06 16:31:00,103.1,49.8,28.48,West,270,2.0,10.0,17,0.00,,,0.00,meteohub,2013-09-06 21:31:00,
2013-09-06 16:36:00,103.8,48.7,28.47,South,180,3.0,10.0,16,0.00,,,0.00,meteohub,2013-09-06 21:36:00,
2013-09-06 16:41:00,102.9,48.0,28.47,ENE,68,12.0,12.0,16,0.00,,,0.00,meteohub,2013-09-06 21:41:00,
2013-09-06 16:46:00,103.3,50.0,28.46,SE,135,1.0,12.0,17,0.00,,,0.00,meteohub,2013-09-06 21:46:00,
2013-09-06 16:51:00,103.1,48.2,28.47,NW,315,4.0,12.0,16,0.00,,,0.00,meteohub,2013-09-06 21:51:00,
2013-09-06 16:56:00,101.7,48.7,28.46,East,90,1.0,12.0,17,0.00,,,0.00,meteohub,2013-09-06 21:56:00,
2013-09-06 17:01:00,101.3,50.0,28.46,East,90,1.0,8.0,18,0.00,,,0.00,meteohub,2013-09-06 22:01:00,
2013-09-06 17:06:00,100.6,49.3,28.46,SW,225,6.0,6.0,18,0.00,,,0.00,meteohub,2013-09-06 22:06:00,
2013-09-06 17:11:00,99.3,49.8,28.46,South,180,1.0,6.0,19,0.00,,,0.00,meteohub,2013-09-06 22:11:00,
2013-09-06 17:16:00,99.1,49.6,28.46,SSE,158,1.0,6.0,19,0.00,,,0.00,meteohub,2013-09-06 22:16:00,
2013-09-06 17:21:00,99.1,49.6,28.47,SW,225,4.0,6.0,19,0.00,,,0.00,meteohub,2013-09-06 22:21:00,
2013-09-06 17:26:00,99.9,48.7,28.46,SW,225,4.0,5.0,18,0.00,,,0.00,meteohub,2013-09-06 22:26:00,
2013-09-06 17:31:00,100.9,49.6,28.46,East,90,1.0,4.0,18,0.00,,,0.00,meteohub,2013-09-06 22:31:00,
2013-09-06 17:36:00,100.0,50.4,28.46,East,90,2.0,4.0,19,0.00,,,0.00,meteohub,2013-09-06 22:36:00,
2013-09-06 17:41:00,99.5,51.3,28.46,SE,135,1.0,4.0,20,0.00,,,0.00,meteohub,2013-09-06 22:41:00,
2013-09-06 17:46:00,99.0,50.9,28.45,SE,135,1.0,4.0,20,0.00,,,0.00,meteohub,2013-09-06 22:46:00,
2013-09-06 17:51:00,98.6,52.0,28.45,South,180,1.0,4.0,21,0.00,,,0.00,meteohub,2013-09-06 22:51:00,
2013-09-06 17:56:00,98.4,51.8,28.45,East,90,1.0,1.0,21,0.00,,,0.00,meteohub,2013-09-06 22:56:00,
2013-09-06 18:01:00,97.9,51.3,28.45,South,180,5.0,5.0,21,0.00,,,0.00,meteohub,2013-09-06 23:01:00,
2013-09-06 18:06:00,98.2,51.6,28.46,South,180,1.0,5.0,21,0.00,,,0.00,meteohub,2013-09-06 23:06:00,
2013-09-06 18:11:00,98.1,52.7,28.45,North,0,1.0,5.0,22,0.00,,,0.00,meteohub,2013-09-06 23:11:00,
2013-09-06 18:16:00,98.1,52.7,28.46,NE,45,1.0,5.0,22,0.00,,,0.00,meteohub,2013-09-06 23:16:00,
2013-09-06 18:21:00,98.2,52.9,28.45,East,90,1.0,4.0,22,0.00,,,0.00,meteohub,2013-09-06 23:21:00,
2013-09-06 18:26:00,97.5,52.3,28.45,South,180,1.0,7.0,22,0.00,,,0.00,meteohub,2013-09-06 23:26:00,
2013-09-06 18:32:00,97.5,52.3,28.46,SE,135,4.0,7.0,22,0.00,,,0.00,meteohub,2013-09-06 23:32:00,
2013-09-06 18:37:00,97.3,52.2,28.45,SSE,158,1.0,4.0,22,0.00,,,0.00,meteohub,2013-09-06 23:37:00,
2013-09-06 18:42:00,97.2,53.2,28.46,East,90,5.0,5.0,23,0.00,,,0.00,meteohub,2013-09-06 23:42:00,
2013-09-06 18:47:00,96.8,54.1,28.45,East,90,1.0,9.0,24,0.00,,,0.00,meteohub,2013-09-06 23:47:00,
2013-09-06 18:52:00,97.0,54.1,28.45,East,90,9.0,9.0,24,0.00,,,0.00,meteohub,2013-09-06 23:52:00,
2013-09-06 18:57:00,97.0,54.1,28.45,East,90,1.0,9.0,24,0.00,,,0.00,meteohub,2013-09-06 23:57:00,
2013-09-06 19:02:00,97.2,54.3,28.45,East,90,1.0,9.0,24,0.00,,,0.00,meteohub,2013-09-07 00:02:00,
2013-09-06 19:07:00,97.0,54.1,28.45,SE,135,5.0,12.0,24,0.00,,,0.00,meteohub,2013-09-07 00:07:00,
2013-09-06 19:12:00,97.2,54.3,28.45,East,90,1.0,12.0,24,0.00,,,0.00,meteohub,2013-09-07 00:12:00,
2013-09-06 19:17:00,96.6,54.0,28.45,SE,135,2.0,12.0,24,0.00,,,0.00,meteohub,2013-09-07 00:17:00,
2013-09-06 19:22:00,96.8,54.1,28.45,NE,45,5.0,8.0,24,0.00,,,0.00,meteohub,2013-09-07 00:22:00,
2013-09-06 19:27:00,96.6,54.0,28.45,SE,135,10.0,10.0,24,0.00,,,0.00,meteohub,2013-09-07 00:27:00,
2013-09-06 19:32:00,96.4,53.8,28.45,East,90,1.0,12.0,24,0.00,,,0.00,meteohub,2013-09-07 00:32:00,
2013-09-06 19:37:00,96.1,53.4,28.45,NW,315,1.0,12.0,24,0.00,,,0.00,meteohub,2013-09-07 00:37:00,
2013-09-06 19:42:00,95.7,54.3,28.45,East,90,9.0,12.0,25,0.00,,,0.00,meteohub,2013-09-07 00:42:00,
2013-09-06 19:47:00,95.7,54.3,28.45,East,90,1.0,9.0,25,0.00,,,0.00,meteohub,2013-09-07 00:47:00,
2013-09-06 19:52:00,95.2,54.9,28.45,East,90,1.0,9.0,26,0.00,,,0.00,meteohub,2013-09-07 00:52:00,
2013-09-06 19:57:00,94.8,54.5,28.45,East,90,1.0,9.0,26,0.00,,,0.00,meteohub,2013-09-07 00:57:00,
2013-09-06 20:02:00,94.8,54.5,28.45,East,90,1.0,2.0,26,0.00,,,0.00,meteohub,2013-09-07 01:02:00,
2013-09-06 20:07:00,94.3,54.1,28.45,North,0,1.0,2.0,26,0.00,,,0.00,meteohub,2013-09-07 01:07:00,
2013-09-06 20:12:00,94.1,55.0,28.45,SSE,158,1.0,1.0,27,0.00,,,0.00,meteohub,2013-09-07 01:12:00,
2013-09-06 20:17:00,94.1,55.0,28.45,East,90,1.0,4.0,27,0.00,,,0.00,meteohub,2013-09-07 01:17:00,
2013-09-06 20:22:00,93.6,54.5,28.45,East,90,1.0,5.0,27,0.00,,,0.00,meteohub,2013-09-07 01:22:00,
2013-09-06 20:27:00,93.2,54.3,28.46,East,90,1.0,5.0,27,0.00,,,0.00,meteohub,2013-09-07 01:27:00,
2013-09-06 20:32:00,93.2,55.2,28.46,East,90,1.0,4.0,28,0.00,,,0.00,meteohub,2013-09-07 01:32:00,
2013-09-06 20:37:00,92.8,54.9,28.46,East,90,1.0,1.0,28,0.00,,,0.00,meteohub,2013-09-07 01:37:00,
2013-09-06 20:42:00,92.7,54.9,28.46,East,90,1.0,2.0,28,0.00,,,0.00,meteohub,2013-09-07 01:42:00,
2013-09-06 20:47:00,92.7,55.8,28.47,East,90,1.0,2.0,29,0.00,,,0.00,meteohub,2013-09-07 01:47:00,
2013-09-06 20:52:00,92.5,55.6,28.47,East,90,1.0,2.0,29,0.00,,,0.00,meteohub,2013-09-07 01:52:00,
2013-09-06 20:57:00,92.1,55.2,28.47,East,90,1.0,1.0,29,0.00,,,0.00,meteohub,2013-09-07 01:57:00,
2013-09-06 21:02:00,92.3,55.4,28.47,SE,135,1.0,1.0,29,0.00,,,0.00,meteohub,2013-09-07 02:02:00,
2013-09-06 21:07:00,92.3,55.4,28.47,East,90,1.0,1.0,29,0.00,,,0.00,meteohub,2013-09-07 02:07:00,
2013-09-06 21:12:00,91.6,56.7,28.48,SE,135,9.0,9.0,31,0.00,,,0.00,meteohub,2013-09-07 02:12:00,
2013-09-06 21:17:00,91.0,57.9,28.48,SE,135,11.0,11.0,33,0.00,,,0.00,meteohub,2013-09-07 02:17:00,
2013-09-06 21:22:00,90.3,58.1,28.48,East,90,11.0,11.0,34,0.00,,,0.00,meteohub,2013-09-07 02:22:00,
2013-09-06 21:27:00,90.0,58.6,28.48,ESE,113,10.0,11.0,35,0.00,,,0.00,meteohub,2013-09-07 02:27:00,
2013-09-06 21:32:00,89.6,59.2,28.48,East,90,6.0,11.0,36,0.00,,,0.00,meteohub,2013-09-07 02:32:00,
2013-09-06 21:37:00,89.6,59.9,28.48,North,0,8.0,11.0,37,0.00,,,0.00,meteohub,2013-09-07 02:37:00,
2013-09-06 21:42:00,89.4,59.7,28.48,East,90,7.0,11.0,37,0.00,,,0.00,meteohub,2013-09-07 02:42:00,
2013-09-06 21:47:00,89.2,59.5,28.48,South,180,7.0,11.0,37,0.00,,,0.00,meteohub,2013-09-07 02:47:00,
2013-09-06 21:52:00,89.2,60.3,28.48,SE,135,8.0,11.0,38,0.00,,,0.00,meteohub,2013-09-07 02:52:00,
2013-09-06 21:57:00,88.9,59.9,28.48,SE,135,6.0,11.0,38,0.00,,,0.00,meteohub,2013-09-07 02:57:00,
2013-09-06 22:02:00,88.5,59.7,28.48,East,90,6.0,11.0,38,0.00,,,0.00,meteohub,2013-09-07 03:02:00,
2013-09-06 22:07:00,88.3,60.3,28.48,East,90,1.0,8.0,39,0.00,,,0.00,meteohub,2013-09-07 03:07:00,
2013-09-06 22:12:00,88.2,60.1,28.48,SE,135,6.0,8.0,39,0.00,,,0.00,meteohub,2013-09-07 03:12:00,
2013-09-06 22:17:00,88.0,59.9,28.48,East,90,11.0,11.0,39,0.00,,,0.00,meteohub,2013-09-07 03:17:00,
2013-09-06 22:22:00,88.2,60.1,28.48,NE,45,6.0,11.0,39,0.00,,,0.00,meteohub,2013-09-07 03:22:00,
2013-09-06 22:27:00,87.6,60.3,28.48,East,90,7.0,11.0,40,0.00,,,0.00,meteohub,2013-09-07 03:27:00,
2013-09-06 22:32:00,87.4,60.8,28.48,SE,135,4.0,11.0,41,0.00,,,0.00,meteohub,2013-09-07 03:32:00,
2013-09-06 22:37:00,87.4,60.8,28.48,East,90,6.0,10.0,41,0.00,,,0.00,meteohub,2013-09-07 03:37:00,
2013-09-06 22:42:00,87.3,60.6,28.49,East,90,6.0,10.0,41,0.00,,,0.00,meteohub,2013-09-07 03:42:00,
2013-09-06 22:47:00,87.1,61.2,28.49,East,90,7.0,10.0,42,0.00,,,0.00,meteohub,2013-09-07 03:47:00,
2013-09-06 22:52:00,86.9,61.0,28.49,East,90,4.0,10.0,42,0.00,,,0.00,meteohub,2013-09-07 03:52:00,
2013-09-06 22:57:00,86.7,60.8,28.49,NE,45,1.0,8.0,42,0.00,,,0.00,meteohub,2013-09-07 03:57:00,
2013-09-06 23:01:00,86.5,60.8,28.49,East,90,4.0,8.0,42,0.00,,,0.00,meteohub,2013-09-07 04:01:00,
2013-09-06 23:06:00,86.5,61.3,28.49,SE,135,2.0,8.0,43,0.00,,,0.00,meteohub,2013-09-07 04:06:00,
2013-09-06 23:11:00,86.4,60.6,28.49,East,90,1.0,5.0,42,0.00,,,0.00,meteohub,2013-09-07 04:11:00,
2013-09-06 23:16:00,86.2,61.0,28.49,NE,45,4.0,5.0,43,0.00,,,0.00,meteohub,2013-09-07 04:16:00,
2013-09-06 23:21:00,86.0,61.0,28.49,East,90,1.0,4.0,43,0.00,,,0.00,meteohub,2013-09-07 04:21:00,
2013-09-06 23:26:00,85.8,61.3,28.49,East,90,7.0,7.0,44,0.00,,,0.00,meteohub,2013-09-07 04:26:00,
2013-09-06 23:31:00,85.5,61.0,28.49,East,90,3.0,7.0,44,0.00,,,0.00,meteohub,2013-09-07 04:31:00,
2013-09-06 23:36:00,85.3,61.0,28.49,East,90,5.0,7.0,44,0.00,,,0.00,meteohub,2013-09-07 04:36:00,
2013-09-06 23:41:00,84.9,61.2,28.49,SE,135,1.0,7.0,45,0.00,,,0.00,meteohub,2013-09-07 04:41:00,
2013-09-06 23:46:00,85.1,61.3,28.49,South,180,1.0,7.0,45,0.00,,,0.00,meteohub,2013-09-07 04:46:00,
2013-09-06 23:51:00,84.6,60.8,28.49,SE,135,3.0,5.0,45,0.00,,,0.00,meteohub,2013-09-07 04:51:00,
2013-09-06 23:56:00,84.6,60.8,28.50,SE,135,2.0,3.0,45,0.00,,,0.00,meteohub,2013-09-07 04:56:00,